TITAN 3C TRANSTAGE DEB, 28837

Orbit data source: Space-Track

TITAN 3C TRANSTAGE DEB, 28837 is space debris in HEO originally from a launch on Tue, 21 Dec 1965 UTC launched from the Air Force Eastern Test Range (AFETR). Debris objects in space refer to the collection of defunct objects orbiting the Earth. Examples of debris include non-operational satellites, rocket bodies, and fragments generated from explosions, collisions, or faulty payload assembly.

Loading next visibility...
Identifier
28837, 1965-108CP
Orbit
HEO
Country
Flag of USUS
Related business
Manufacturer
Unknown
Mission
Spacecraft
Bus & Motor
Unknown
Mass
Unknown
Launch date (UTC)
1965-12-21 (61 years ago)
Launch vehicle
Unknown
Launch site
Air Force Eastern Test Range (AFETR)
Object type
Payload
Rocket body
Debris
Shape & HBR
Unknown shape, 0.1 m
Radar Cross Section
Medium (>0.1 m² and <1 m²)

Expand to show TLE details & history
Last TLE update: 3 weeks ago

TLE from 3 weeks ago
0 TITAN 3C TRANSTAGE DEB
1 28837U 65108CP  26235.41328493  .00000045  00000-0  00000-0 0  9999
2 28837  25.6035 222.9101 6525852 200.6784 354.2165  2.63341675 27606
Epoch: 2026-08-23T09:55Z
TLE epoch observation values (Epoch: 2026-08-23T09:55:07.817Z)
Latitude
5.95696°
Longitude
-90.15711°
Altitude
1,909.791 km
Speed
8.843 km/s
True Right ascension
02h 01m 20s
True Declination
5° 55' 35"
Sunlit
Object was in daylight at epoch
Visualization orbit readout
Latitude
Unknown
Longitude
Unknown
Altitude
Unknown
Speed
Unknown
Apparent Right ascension
Unknown
Apparent Declination
Unknown
Sunlit
N/A
Visualization observer readout
Local Sidereal Time
19:04:35
Azimuth
Unknown
Elevation
Unknown
Doppler factor
Unknown
Orbital elements
Apogee altitude
30,233.354 km
Perigee altitude
1,318.515 km
Semi-major axis
22,154.072 km
Eccentricity
0.65259
Inclination
25.6035°
RAAN
222.9101°
Arg. of periapsis
200.6784°
True anomaly
325.42895°
Mean anomaly
354.2165°
Eccentric anomaly
343.75961°
Mean motion
0.65821 °/min
Orbital period
546.94 mins
BSTAR
0
Loading maneuver chart data...
Computing Atmospheric mass density...

Documentation

Showing up to 5 results
|